DateTimeUTC,F1_A11,F1_S11,BsB_S11,BsG_S11,BsR_S11,BbsB_S11,BbsG_S11,BbsR_S11,BaB_A11,BaG_A11,BaR_A11,Tu_S11,T_S11,Uu_S11,U_S11,P_S11,T1_A11
2021-08-27T22:00:00Z,00000200,20000000,,,,,,,0000.26,0000.19,-000.05,19.2,25.9,07.8,05.2,0670.0,31.0
2021-08-27T22:01:00Z,00000200,20000000,,,,,,,-000.04,-000.47,-000.21,19.2,25.9,07.8,05.2,0670.0,31.1
2021-08-27T22:02:00Z,00000200,20000000,,,,,,,-000.37,0000.25,-000.46,19.2,25.9,07.8,05.2,0670.0,31.1
2021-08-27T22:03:00Z,00000200,60000000,,,,,,,0000.42,0000.30,0000.87,19.2,25.9,07.8,05.2,0670.0,31.1
2021-08-27T22:04:00Z,00000200,40000000,0002.79,0002.57,0001.81,0001.04,0000.47,0000.18,0000.56,0000.48,0000.52,19.4,25.8,07.7,05.2,0670.9,31.1
2021-08-27T22:05:00Z,00000200,00000000,0003.24,0002.68,0001.69,0000.97,-000.10,0000.19,0000.36,0000.56,-000.17,19.5,25.8,07.7,05.2,0671.0,31.1
2021-08-27T22:06:00Z,00000200,00000000,0002.86,0002.71,0001.60,0000.85,0000.51,0000.32,0000.61,0000.62,0000.92,19.5,25.8,07.6,05.2,0671.0,31.1
2021-08-27T22:07:00Z,00000200,00000000,0002.77,0002.46,0001.55,0001.16,0000.24,0000.32,0000.98,0000.35,0000.44,19.5,25.8,07.7,05.2,0671.0,31.1
2021-08-27T22:08:00Z,00000200,00000000,0002.94,0002.42,0002.20,0000.34,0000.13,0000.51,0000.39,0000.86,0000.24,19.5,25.7,07.8,05.3,0671.0,31.0
2021-08-27T22:09:00Z,00000200,00000000,0002.70,0002.66,0001.52,0000.61,0000.20,0000.24,0000.62,-000.20,0000.36,19.4,25.7,07.7,05.3,0671.0,31.1
2021-08-27T22:10:00Z,00000200,00000000,0003.13,0002.58,0001.74,0000.78,0000.36,0000.26,0000.26,0000.90,0000.68,19.4,25.7,07.7,05.3,0670.9,31.1
2021-08-27T22:11:00Z,00000200,00000000,0003.83,0002.55,0001.91,0000.60,0000.38,-000.12,0000.76,0000.41,-000.07,19.4,25.7,07.7,05.3,0671.0,31.1
2021-08-27T22:12:00Z,00000200,00000000,0003.43,0002.46,0002.18,0000.34,0000.04,0000.54,0000.32,0000.36,0000.62,19.4,25.7,07.9,05.4,0670.9,31.0
2021-08-27T22:13:00Z,00000200,00000000,0003.54,0002.79,0001.69,0001.12,0000.68,-000.12,0000.81,0000.60,0000.54,19.4,25.7,07.9,05.4,0670.9,31.0
2021-08-27T22:14:00Z,00000200,00000000,0003.31,0002.54,0001.75,0000.76,0000.23,0000.48,0000.77,0000.59,0000.32,19.4,25.6,07.8,05.3,0670.9,31.1
2021-08-27T22:15:00Z,00000200,00000000,0003.28,0002.19,0001.78,0000.83,0000.31,0000.29,0000.09,0000.47,0000.67,19.3,25.6,07.9,05.4,0670.9,31.0
2021-08-27T22:16:00Z,00000200,00000000,0002.86,0002.36,0001.96,0000.66,0000.33,0000.23,0000.76,0000.55,0000.48,19.3,25.6,07.9,05.4,0670.9,31.0
2021-08-27T22:17:00Z,00000200,00000000,0003.94,0002.25,0001.77,0000.62,0000.17,0000.37,0000.39,0000.51,0000.34,19.3,25.6,07.9,05.4,0670.9,31.0
2021-08-27T22:18:00Z,00000200,00000000,0003.00,0002.50,0001.85,0001.15,0000.01,0000.26,0000.51,0000.23,0000.62,19.3,25.6,07.9,05.4,0670.9,31.0
2021-08-27T22:19:00Z,00000200,00000000,0003.12,0002.19,0001.84,0000.47,0000.62,0000.46,0000.68,0001.07,0000.48,19.3,25.6,07.9,05.4,0670.9,31.0
2021-08-27T22:20:00Z,00000200,00000000,0002.71,0002.68,0001.60,0000.80,0000.16,0000.21,0000.76,0000.32,0000.09,19.3,25.6,07.9,05.4,0670.9,31.1
2021-08-27T22:21:00Z,00000200,00000000,0003.10,0002.51,0001.65,0000.79,0000.36,-000.02,0000.29,0000.54,0000.66,19.3,25.6,07.9,05.4,0670.9,31.0
2021-08-27T22:22:00Z,00000200,00000000,0002.98,0002.38,0002.03,0000.20,0000.49,0000.19,0000.60,0000.24,0000.36,19.3,25.6,08.0,05.5,0670.9,31.0
2021-08-27T22:23:00Z,00000200,00000000,0003.58,0002.03,0001.74,0000.38,0000.38,0000.39,0000.50,0001.04,0000.24,19.2,25.6,08.0,05.4,0670.9,31.0
2021-08-27T22:24:00Z,00000200,00000000,0002.08,0002.17,0001.54,0000.66,0000.32,0000.23,0000.99,0000.43,0001.10,19.2,25.5,07.9,05.4,0670.9,31.0
2021-08-27T22:25:00Z,00000200,00000000,0002.37,0002.28,0001.62,0001.07,0000.44,0000.34,0000.53,0000.58,0000.27,19.2,25.5,08.0,05.5,0670.9,31.0
2021-08-27T22:26:00Z,00000200,00000000,0003.06,0002.15,0001.77,0000.76,0000.28,0000.24,0000.19,0000.55,0000.30,19.2,25.5,08.1,05.5,0670.9,31.0
2021-08-27T22:27:00Z,00000200,00000000,0002.50,0002.52,0001.91,0000.41,0000.55,0000.39,0000.65,0000.88,0000.19,19.2,25.5,08.0,05.5,0671.0,31.0
2021-08-27T22:28:00Z,00000200,00000000,0002.92,0002.13,0001.76,0000.39,0000.21,0000.14,0000.58,0000.13,0000.68,19.2,25.5,08.1,05.5,0670.9,31.0
2021-08-27T22:29:00Z,00000200,00000000,0002.30,0002.23,0001.45,0000.79,0000.37,0000.30,0000.43,0000.34,0000.38,19.2,25.5,08.1,05.5,0670.9,31.0
2021-08-27T22:30:00Z,00000200,00000000,0003.53,0001.94,0001.51,0000.40,0000.33,0000.34,0000.44,0000.20,0000.47,19.2,25.5,08.1,05.5,0670.9,31.0
2021-08-27T22:31:00Z,00000200,00000000,0003.03,0002.10,0001.72,0000.97,0000.45,0000.34,0000.61,0001.08,0000.58,19.2,25.5,08.0,05.5,0670.9,31.1
2021-08-27T22:32:00Z,00000200,00000000,0002.00,0001.77,0001.54,0001.50,0000.14,0000.28,0000.84,0000.41,0000.39,19.4,25.5,08.1,05.5,0670.9,31.1
2021-08-27T22:33:00Z,00000200,00000000,0002.51,0002.28,0001.22,0000.14,0000.38,0000.17,0000.30,0000.42,0000.47,19.5,25.6,08.0,05.5,0671.0,31.1
2021-08-27T22:34:00Z,00000200,00000000,0003.13,0002.15,0001.86,0000.73,0000.31,0000.37,0000.29,0000.36,0000.34,19.5,25.7,07.9,05.5,0670.9,31.1
2021-08-27T22:35:00Z,00000200,00000000,0001.98,0002.27,0001.47,0000.27,0000.19,0000.52,0000.33,0000.43,0000.01,19.6,25.7,07.9,05.5,0670.9,31.1
2021-08-27T22:36:00Z,00000200,00000000,0002.83,0002.52,0001.69,0000.34,0000.37,0000.10,0000.69,0000.28,0000.49,19.6,25.7,07.9,05.5,0671.0,31.1
2021-08-27T22:37:00Z,00000200,00000000,0003.17,0002.26,0001.40,0000.62,0000.50,0000.16,0000.11,0000.23,0000.05,19.6,25.7,07.8,05.4,0671.0,31.1
2021-08-27T22:38:00Z,00000200,00000000,0002.86,0002.03,0001.61,0000.70,0000.21,0000.01,0000.56,0000.72,0000.56,19.5,25.7,07.8,05.4,0671.0,31.1
2021-08-27T22:39:00Z,00000200,00000000,0002.68,0002.19,0001.68,0000.39,0000.37,0000.29,0000.07,0000.06,0000.33,19.5,25.7,07.8,05.4,0671.0,31.1
2021-08-27T22:40:00Z,00000200,00000000,0003.10,0001.94,0001.70,0001.06,-000.21,0000.24,0000.79,0000.45,0000.21,19.5,25.7,07.8,05.4,0671.0,31.0
2021-08-27T22:41:00Z,00000200,00000000,0003.37,0002.02,0001.34,0000.15,0000.24,0000.07,0000.18,0000.16,-000.28,19.5,25.6,07.8,05.4,0671.0,31.1
2021-08-27T22:42:00Z,00000200,00000000,0002.60,0002.37,0001.62,0000.25,0000.27,0000.30,0000.14,0000.49,0000.78,19.4,25.6,07.8,05.3,0671.0,31.0
2021-08-27T22:43:00Z,00000200,00000000,0002.91,0002.48,0001.79,0000.60,0000.38,-000.14,0000.43,0000.30,0000.20,19.4,25.6,07.7,05.3,0671.0,31.0
2021-08-27T22:44:00Z,00000200,00000000,0003.03,0002.13,0001.44,0000.24,0000.29,0000.13,0000.38,-000.12,0000.46,19.4,25.6,07.7,05.3,0671.0,31.0
2021-08-27T22:45:00Z,00000200,00000000,0002.23,0001.99,0001.65,0001.21,0000.08,0000.16,0000.73,0001.15,0000.57,19.4,25.6,07.6,05.2,0671.0,31.0
2021-08-27T22:46:00Z,00000200,00000000,0002.59,0002.15,0001.70,0000.53,0000.35,0000.29,0000.19,-000.03,0000.19,19.4,25.6,07.6,05.2,0671.0,31.1
2021-08-27T22:47:00Z,00000200,00000000,0003.53,0002.09,0001.48,0000.71,0000.40,-000.07,0000.50,0000.42,-000.05,19.5,25.7,07.5,05.2,0671.0,31.1
2021-08-27T22:48:00Z,00000200,00000000,0002.25,0002.10,0001.37,0000.62,-000.01,-000.19,0000.10,0000.37,0000.73,19.5,25.7,07.5,05.2,0671.0,31.1
2021-08-27T22:49:00Z,00000200,00000000,0002.89,0002.26,0001.29,0000.63,0000.12,-000.04,0000.46,0000.09,-000.08,19.5,25.7,07.5,05.2,0671.0,31.1
2021-08-27T22:50:00Z,00000200,00000000,0002.42,0002.34,0001.61,0000.34,0000.13,0000.34,0000.29,0000.21,0000.35,19.6,25.7,07.5,05.2,0671.0,31.1
2021-08-27T22:51:00Z,00000200,00000000,0002.71,0002.22,0001.35,0000.70,0000.23,0000.09,0000.55,0000.51,0000.46,19.5,25.7,07.5,05.2,0671.0,31.1
2021-08-27T22:52:00Z,00000200,00000000,0002.27,0001.72,0001.32,0000.49,0000.32,0000.45,0000.02,0000.07,-000.33,19.5,25.7,07.4,05.1,0671.0,31.1
2021-08-27T22:53:00Z,00000200,00000000,0002.85,0002.12,0001.18,0000.44,0000.36,0000.17,0000.46,0000.63,0000.83,19.5,25.7,07.5,05.1,0671.0,31.1
2021-08-27T22:54:00Z,00000200,00000000,0001.84,0001.92,0001.20,0000.69,-000.05,-000.10,0000.32,0000.24,0000.24,19.5,25.7,07.5,05.2,0671.0,31.0
2021-08-27T22:55:00Z,00000200,00000000,0001.63,0001.59,0001.41,0000.45,0000.41,0000.30,0000.60,0000.55,0000.36,19.4,25.6,07.5,05.1,0671.0,31.1
2021-08-27T22:56:00Z,00000200,00000000,0001.96,0002.19,0001.07,0000.54,0000.30,0000.19,0000.11,0000.22,0000.39,19.4,25.6,07.4,05.0,0671.1,31.0
2021-08-27T22:57:00Z,00000200,40000000,,,,,,,0000.50,0000.39,0000.48,19.4,25.7,07.3,05.0,0671.1,31.0
2021-08-27T22:58:00Z,00000200,60000000,,,,,,,-000.25,-000.22,-000.67,19.1,25.7,07.5,05.0,0670.2,31.0
2021-08-27T22:59:00Z,00000200,20000000,,,,,,,-000.11,-000.28,0000.24,19.1,25.8,07.5,05.0,0670.1,31.0
